Regional Weather Roundup
Issued by NWS

Home | Current Version | Previous Version | Graphics & Text | Print | Product List | Glossary On
Versions: 1 2 3 4 5 6 7 8 9 10 11 12 13 14 15 16 17 18 19 20 21 22 23 24 25 26 27 28 29 30 31 32 33 34 35 36 37 38 39 40 41 42 43 44 45 46 47 48 49 50
000
ASUS43 KTOP 181008
RWRKS

WEATHER ROUNDUP FOR KANSAS
NATIONAL WEATHER SERVICE GOODLAND KS
400 AM CST WED JAN 18 2017

NOTE:  "FAIR" INDICATES FEW OR NO CLOUDS BELOW 12,000 FEET WITH NO
SIGNIFICANT WEATHER AND/OR OBSTRUCTIONS TO VISIBILITY.

KSZ001>006-013>018-027>032-041>047-181100-
NORTHWEST KANSAS

CITY           SKY/WX    TMP DP  RH WIND       PRES   REMARKS
GOODLAND       CLEAR     30  28  92 SW7       29.98F
HAYS           CLOUDY    30  26  85 W5        30.06F
HILL CITY      CLOUDY    34  30  85 W6        30.04F
RUSSELL        CLOUDY    32  29  88 S10       30.06F WCI  24
$$

KSZ061>065-074>080-084>089-181100-
SOUTHWEST KANSAS

CITY           SKY/WX    TMP DP  RH WIND       PRES   REMARKS
DODGE CITY     PTCLDY    38  32  79 SW14G22   30.05F WCI  30
ELKHART          N/A     37  30  75 SW13        N/A  WCI  29
GARDEN CITY    CLOUDY    32  29  88 S6        30.03F
GREAT BEND     PTCLDY    32  29  88 SE9       30.09F
LIBERAL        PTCLDY    36  28  75 SW8       30.06F
PRATT          PTCLDY    32  28  83 CALM      30.10F
$$

KSZ066>073-081>083-090>101-181100-
SOUTHEAST KANSAS

CITY           SKY/WX    TMP DP  RH WIND       PRES   REMARKS
CHANUTE        FOG       31  29  92 SE3       30.16S VSB 1/2
COFFEYVILLE    CLEAR     32  32 100 NE3       30.16F FOG
HUTCHINSON     PTCLDY    31  29  92 CALM      30.11F
MEDICINE LODGE   N/A     35  30  82 CALM      30.11F
NEWTON         PTCLDY    35  31  85 SW7       30.13S
PARSONS        CLEAR     31  30  96 CALM      30.17F FOG
WICHITA INTL   PTCLDY    36  32  85 CALM      30.12F
WICHITA JABRA  CLOUDY    33  31  92 S6        30.13S
WICHITA MCCONL PTCLDY    35  30  83 S3        30.13S
WINFIELD       PTCLDY    33  30  88 N5        30.14F
$$

KSZ007>012-019>026-033>040-048>060-102>105-181100-
NORTHEAST KANSAS

CITY           SKY/WX    TMP DP  RH WIND       PRES   REMARKS
CONCORDIA      CLOUDY    34  29  82 SW7       30.08F
EMPORIA        CLEAR     32  29  88 SW5       30.12F
LAWRENCE       FOG       25  25 100 SE3       30.15F VSB 1/4
MANHATTAN      CLOUDY    24  22  91 CALM      30.12F
MARYSVILLE     CLOUDY    28  27  93 S6        30.10F
OLATHE IND     FOG       26  26 100 S3        30.15S VSB 1/4
OLATHE EXE     FOG       28  28 100 S6        30.14F VSB 1/4
SALINA           N/A    N/A N/A N/A MISG        N/A
TOPEKA BILLARD CLOUDY    28  25  88 CALM      30.15R FOG
TOPEKA FORBES  CLOUDY    30  27  88 S7        30.14S FOG
$$




USA.gov is the U.S. government's official web portal to all federal, state and local government web resources and services.